Terminal Aerodrome Forecast
Issued by NWS Portland, OR

Home | Current Version | Previous Version | Text Only | Print | Product List | Glossary On
Versions: 1 2 3 4 5 6 7 8 9 10 11 12 13 14 15 16 17 18 19 20 21 22 23 24 25 26 27 28 29 30 31 32 33 34 35 36 37 38 39 40 41 42 43
000
FTUS46 KPQR 300532
TAFAST
TAF
KAST 300532Z 3006/0106 27005KT P6SM OVC007
     FM300900 30005KT 3SM BR OVC005
     FM301500 30008KT 6SM BR OVC010
     FM301900 31015G22KT P6SM SCT015=

USA.gov is the U.S. government's official web portal to all federal, state and local government web resources and services.